User: anonymous   Login
Location: Acheville
(50.3840°N, 2.8827°E)
Time: 03:20:47
(UTC+00:00)
Language:

BREEZE-M R/B - Orbit

View from above orbital plane
View from above orbital plane
View from above satellite
View from above satellite

Ground track
Ground track

The orbit data is extracted from the following two-line orbital elements,

1 32709U 08011B   22018.49076760  .00000032  00000-0 -19726-3 0  9997
2 32709  48.9024 168.9941 6492791 122.1602 333.4013  3.07834263 96547
Epoch (UTC): 18 January 2022 11:46:42
Eccentricity: 0.6492791
inclination: 48.9024°
perigee height: 623 km
apogee height: 26543 km
right ascension of ascending node: 168.9941°
argument of perigee: 122.1602°
revolutions per day: 3.07834263
mean anomaly at epoch: 333.4013°
orbit number at epoch: 9654

The dashed part of the orbit path shows where the satellite is in the earth's shadow,  

DLR